Epoch = 1994 Sept. 5.0 TT T = 1994 Sept.18.8041 TT Peri. = 149.2623 e = 0.750145 Node = 246.1772 2000.0 q = 0.752548 AU Incl. = 12.7865 a = 3.011944 AU n = 0.1885532 P = 5.227 years
A核: m1 = 13 + 5 logΔ + 35 log r D核: m1 = 15.5 + 5 logΔ + 45 log r(t - 10)